Showing default

SHIYAN 27B, 63600

Orbit data source: Space-Track

SHIYAN 27B, 63600 is a payload satellite owned by CAST (CN) in SSO that was launched on Fri, 18 Apr 2025 UTC via a CHANG ZHENG 6A launch vehicle from the Taiyaun Space Center, China (TSC). Payload-class satellites include a variety of spacecraft equipped with specific instruments for various scientific and technological missions. These include communications satellites like Starlink; space stations such as the ISS; scientific satellites like the Hubble; Earth observation satellites from companies like Planet Labs, Umbra, and HawkEye 360; GPS; miniature CubeSats for education and research; and military/defense satellites.

Loading next visibility...
Identifier
63600, 2025-078B
Orbit
SSO
Country
Flag of CNCN / PRC
Related business
Manufacturer
CAST
Mission
Operational Defense Radar Imaging
Bus & Motor
SW27, Unknown motor
Mass
300 kg wet, ~300 kg dry
Launch date (UTC)
2025-04-18 (6 months ago)
Launch vehicle
CHANG ZHENG 6A
Launch site
Taiyaun Space Center, China (TSC)
Object type
Payload
Rocket body
Debris
Shape & HBR
Box + 1 Pan, 2.2 m
Radar Cross Section
13.200 m², Large (>1 m²)

Expand to show TLE details & history
Last TLE update: 9 hours ago

TLE from 9 hours ago
0 SHIYAN 27B
1 63600U 25078B   25295.54519405  .00000026  00000-0  98955-4 0  9991
2 63600  99.6951 301.2906 0000678  88.9610 271.1606 13.57219746 25296
Epoch: 2025-10-22T13:05Z
TLE epoch observation values (Epoch: 2025-10-22T13:05:04.765Z)
Latitude
-0.00005°
Longitude
73.80349°
Altitude
1,048.599 km
Speed
7.328 km/s
True Right ascension
20h 05m 09s
True Declination
0° 00' 00"
Sunlit
Object was in daylight at epoch
Visualization orbit readout
Latitude
Unknown
Longitude
Unknown
Altitude
Unknown
Speed
Unknown
Apparent Right ascension
Unknown
Apparent Declination
Unknown
Sunlit
N/A
Visualization observer readout
Local Sidereal Time
16:55:07
Azimuth
Unknown
Elevation
Unknown
Doppler factor
Unknown
Orbital elements
Apogee altitude
1,043.608 km
Perigee altitude
1,042.602 km
Semi-major axis
7,421.242 km
Eccentricity
0.00007
Inclination
99.6951°
RAAN
301.2906°
Arg. of periapsis
88.961°
True anomaly
271.15283°
Mean anomaly
271.1606°
Eccentric anomaly
271.15672°
Mean motion
3.39491 °/min
Orbital period
106.04 mins
BSTAR
0.000098955
Loading maneuver chart data...
Computing Atmospheric mass density...
Loading historical data...
Loading historical data...
Loading historical data...
Loading historical data...
Loading historical data...
Loading historical data...
Loading historical data...

Documentation

Showing up to 5 results
|